Overview Statistics Trail Chart Weather Telemetry Raw packets
 

This is the latest recevied weather packets stored in our database for station/object KK6LVQ-13. If no packets are shown the sender has not sent any weather packets the latest 10 day(s).

<< 1 2 3 4 >>
Time Temp. Humidity Pressure Rain* Wind** Luminosity Snow
1788577925 16.11° C 70% 1019.4 hPa 0 mm - 0 W/m² -
1788577620 16.11° C 70% 1019.2 hPa 0 mm - 0 W/m² -
1788577315 16.11° C 69% 1019.3 hPa 0 mm - 0 W/m² -
1788577010 16.11° C 67% 1019.3 hPa 0 mm - 0 W/m² -
1788576706 16.67° C 67% 1019.2 hPa 0 mm - 0 W/m² -
1788576402 16.67° C 65% 1019.2 hPa 0 mm - 0 W/m² -
1788576097 16.67° C 62% 1019.1 hPa 0 mm - 1 W/m² -
1788575792 17.22° C 60% 1019.1 hPa 0 mm - 2 W/m² -
1788575491 17.22° C 58% 1019 hPa 0 mm - 3 W/m² -
1788575190 17.22° C 57% 1019.1 hPa 0 mm - 6 W/m² -
1788574886 17.78° C 57% 1019 hPa 0 mm - 8 W/m² -
1788574580 17.78° C 58% 1018.9 hPa 0 mm - 11 W/m² -
1788574302 17.78° C 58% 1018.9 hPa 0 mm - 13 W/m² -
1788573975 18.33° C 57% 1018.7 hPa 0 mm - 15 W/m² -
1788573671 18.33° C 56% 1018.7 hPa 0 mm - 17 W/m² -
1788573369 18.89° C 55% 1018.8 hPa 0 mm - 19 W/m² -
1788573064 18.89° C 53% 1018.7 hPa 0 mm - 21 W/m² -
1788572758 20° C 50% 1018.6 hPa 0 mm - 29 W/m² -
1788572458 20° C 49% 1018.6 hPa 0 mm - 30 W/m² -
1788572150 20.56° C 48% 1018.6 hPa 0 mm - 33 W/m² -
1788571846 20.56° C 45% 1018.7 hPa 0 mm - 36 W/m² -
1788571545 21.11° C 44% 1018.3 hPa 0 mm - 40 W/m² -
1788571242 21.67° C 43% 1018.5 hPa 0 mm - 44 W/m² -
1788570938 21.11° C 44% 1018.6 hPa 0 mm - 61 W/m² -
1788570636 21.67° C 44% 1018.4 hPa 0 mm - 72 W/m² -

* Rain latest hour (hover to see other rain measurements)
** Current wind speed in m/s (hover to see current wind gust speed)